KLM75A EHAM-EGPH

Flight info

Callsign KLM75A
Flight time 1h 33m
Altitude 36000
Route EHAM/18L BERGI4E BERGI L602 SUPUR P1 GODOS DCT ROXAT DCT BAZNA DCT ANMAZ DCT AGPED AGPED1E EGPH/24
Aircraft A21N/M-SDE2E3FGHIRWXY/LB1

Departure

Time 2026-05-01 13:50
Airport Amsterdam Airport Schiphol (EHAM)

Arrival

Time 2026-05-01 15:24
Airport Edinburgh Airport (EGPH)
Time Latitude Longitude Altitude Speed Heading
2026-05-01 13:07 52.30977 4.76929 4 ft 0 kts 138°
2026-05-01 13:38 52.30993 4.76905 4 ft 4 kts 134°
2026-05-01 13:38 52.31012 4.76873 4 ft 4 kts 132°
2026-05-01 13:38 52.31031 4.76842 4 ft 4 kts 147°
2026-05-01 13:39 52.31048 4.76833 4 ft 3 kts 211°
2026-05-01 13:39 52.31069 4.76855 4 ft 4 kts 228°
2026-05-01 13:39 52.31082 4.76884 4 ft 4 kts 251°
2026-05-01 13:39 52.31086 4.76927 4 ft 4 kts 272°
2026-05-01 13:40 52.31084 4.76964 4 ft 4 kts 273°
2026-05-01 13:40 52.31083 4.77008 4 ft 4 kts 273°
2026-05-01 13:40 52.31081 4.77051 4 ft 3 kts 274°
2026-05-01 13:40 52.31081 4.77056 4 ft 1 kts 274°
2026-05-01 13:43 52.31081 4.77055 4 ft 1 kts 274°
2026-05-01 13:44 52.31082 4.77029 4 ft 4 kts 274°
2026-05-01 13:44 52.31090 4.76971 4 ft 7 kts 298°
2026-05-01 13:44 52.31145 4.76949 4 ft 11 kts 18°
2026-05-01 13:44 52.31222 4.77018 4 ft 14 kts 33°
2026-05-01 13:45 52.31308 4.77111 4 ft 15 kts 33°
2026-05-01 13:45 52.31373 4.77179 4 ft 9 kts 26°
2026-05-01 13:45 52.31442 4.77192 4 ft 11 kts
2026-05-01 13:45 52.31523 4.77202 4 ft 11 kts 11°
2026-05-01 13:46 52.31572 4.77302 4 ft 13 kts 81°
2026-05-01 13:46 52.31581 4.77466 4 ft 16 kts 86°
2026-05-01 13:46 52.31587 4.77635 4 ft 11 kts 87°
2026-05-01 13:46 52.31589 4.77707 4 ft 0 kts 87°
2026-05-01 13:47 52.31589 4.77714 4 ft 2 kts 87°
2026-05-01 13:48 52.31590 4.77757 5 ft 5 kts 87°
2026-05-01 13:48 52.31592 4.77818 5 ft 7 kts 87°
2026-05-01 13:48 52.31595 4.77912 5 ft 10 kts 87°
2026-05-01 13:48 52.31550 4.77962 6 ft 2 kts 192°
2026-05-01 13:49 52.31529 4.77959 7 ft 4 kts 180°
2026-05-01 13:49 52.31518 4.77959 7 ft 0 kts 182°
2026-05-01 13:49 52.31509 4.77958 7 ft 11 kts 182°
2026-05-01 13:49 52.31172 4.77929 3 ft 85 kts 182°
2026-05-01 13:50 52.30374 4.77855 6 ft 143 kts 184°
2026-05-01 13:50 52.29335 4.77719 427 ft 152 kts 180°
2026-05-01 13:50 52.28228 4.77744 941 ft 167 kts 167°
2026-05-01 13:50 52.27057 4.78312 1438 ft 185 kts 164°
2026-05-01 13:51 52.25722 4.78929 2010 ft 213 kts 164°
2026-05-01 13:51 52.24267 4.79584 2955 ft 219 kts 164°
2026-05-01 13:51 52.22790 4.79981 3980 ft 218 kts 181°
2026-05-01 13:51 52.21294 4.79430 4879 ft 229 kts 198°
2026-05-01 13:52 52.19885 4.77984 5435 ft 254 kts 224°
2026-05-01 13:52 52.19023 4.75409 6315 ft 268 kts 253°
2026-05-01 13:52 52.19071 4.72327 7229 ft 282 kts 283°
2026-05-01 13:52 52.20095 4.69583 8138 ft 292 kts 314°
2026-05-01 13:53 52.21860 4.67891 9060 ft 300 kts 339°
2026-05-01 13:53 52.25760 4.65885 10665 ft 318 kts 341°
2026-05-01 13:53 52.27939 4.64686 11101 ft 340 kts 340°
2026-05-01 13:54 52.30227 4.63360 11606 ft 357 kts 339°
2026-05-01 13:54 52.32588 4.61953 12378 ft 363 kts 339°
2026-05-01 13:54 52.34976 4.60509 13229 ft 368 kts 339°
2026-05-01 13:54 52.37361 4.59055 14054 ft 372 kts 339°
2026-05-01 13:55 52.39804 4.57559 14787 ft 377 kts 339°
2026-05-01 13:55 52.42272 4.56047 15553 ft 381 kts 339°
2026-05-01 13:55 52.44762 4.54520 16310 ft 385 kts 339°
2026-05-01 13:55 52.47286 4.52969 17040 ft 389 kts 339°
2026-05-01 13:56 52.49829 4.51406 17772 ft 392 kts 339°
2026-05-01 13:56 52.52396 4.49827 18500 ft 396 kts 339°
2026-05-01 13:56 52.54998 4.48222 19120 ft 400 kts 339°
2026-05-01 13:56 52.57611 4.46611 19759 ft 402 kts 339°
2026-05-01 13:57 52.60236 4.44985 20392 ft 405 kts 339°
2026-05-01 13:57 52.61983 4.43901 20815 ft 406 kts 339°
2026-05-01 13:57 52.65485 4.41730 21652 ft 409 kts 339°
2026-05-01 13:57 52.68161 4.40074 22267 ft 412 kts 339°
2026-05-01 13:58 52.70849 4.38403 22876 ft 415 kts 338°
2026-05-01 13:58 52.73515 4.36564 23484 ft 417 kts 331°
2026-05-01 13:58 52.75913 4.33897 24001 ft 417 kts 317°
2026-05-01 13:58 52.77945 4.30471 24496 ft 418 kts 310°
2026-05-01 13:59 52.79884 4.26871 24974 ft 421 kts 309°
2026-05-01 13:59 52.81827 4.23239 25461 ft 423 kts 310°
2026-05-01 13:59 52.83796 4.19591 25922 ft 426 kts 310°
2026-05-01 13:59 52.85783 4.15931 26366 ft 428 kts 310°
2026-05-01 14:00 52.87756 4.12303 26830 ft 431 kts 310°
2026-05-01 14:00 52.89765 4.08605 27257 ft 433 kts 310°
2026-05-01 14:00 52.91781 4.04886 27678 ft 436 kts 310°
2026-05-01 14:00 52.93809 4.01141 28093 ft 438 kts 310°
2026-05-01 14:01 52.95852 3.97356 28492 ft 441 kts 309°
2026-05-01 14:01 52.97901 3.93558 28884 ft 443 kts 309°
2026-05-01 14:01 52.99963 3.89729 29268 ft 445 kts 309°
2026-05-01 14:01 53.02028 3.85882 29656 ft 447 kts 309°
2026-05-01 14:02 53.03975 3.81852 30011 ft 447 kts 302°
2026-05-01 14:02 53.05707 3.77545 30377 ft 449 kts 301°
2026-05-01 14:02 53.07422 3.73181 30690 ft 451 kts 301°
2026-05-01 14:02 53.09153 3.68811 31036 ft 452 kts 301°
2026-05-01 14:03 53.10894 3.64458 31456 ft 451 kts 301°
2026-05-01 14:03 53.12633 3.60126 31873 ft 449 kts 301°
2026-05-01 14:03 53.14364 3.55804 32278 ft 448 kts 301°
2026-05-01 14:03 53.16094 3.51480 32687 ft 447 kts 301°
2026-05-01 14:04 53.17809 3.47188 33079 ft 446 kts 301°
2026-05-01 14:04 53.19529 3.42873 33482 ft 445 kts 301°
2026-05-01 14:04 53.21237 3.38580 33858 ft 444 kts 301°
2026-05-01 14:04 53.22369 3.35729 34090 ft 443 kts 301°
2026-05-01 14:05 53.24639 3.30007 34499 ft 442 kts 301°
2026-05-01 14:05 53.26338 3.25716 34765 ft 442 kts 301°
2026-05-01 14:05 53.27459 3.22883 34935 ft 442 kts 301°
2026-05-01 14:05 53.29701 3.17200 35271 ft 442 kts 301°
2026-05-01 14:06 53.31391 3.12909 35522 ft 441 kts 301°
2026-05-01 14:06 53.32529 3.10020 35675 ft 441 kts 301°
2026-05-01 14:06 53.34223 3.05711 35918 ft 441 kts 300°
2026-05-01 14:06 53.35906 3.01418 36156 ft 441 kts 300°
2026-05-01 14:07 53.37564 2.97179 36285 ft 441 kts 300°
2026-05-01 14:07 53.39242 2.92888 36281 ft 441 kts 300°
2026-05-01 14:08 53.44268 2.79971 36242 ft 440 kts 300°
2026-05-01 14:08 53.47606 2.71336 36238 ft 441 kts 300°
2026-05-01 14:09 53.50951 2.62686 36236 ft 441 kts 300°
2026-05-01 14:09 53.54280 2.54048 36237 ft 441 kts 300°
2026-05-01 14:10 53.57614 2.45367 36223 ft 441 kts 300°
2026-05-01 14:10 53.60938 2.36671 36228 ft 441 kts 299°
2026-05-01 14:11 53.64233 2.28021 36238 ft 441 kts 299°
2026-05-01 14:11 53.69201 2.14941 36229 ft 442 kts 299°
2026-05-01 14:12 53.72510 2.06182 36222 ft 442 kts 299°
2026-05-01 14:12 53.75805 1.97431 36227 ft 442 kts 299°
2026-05-01 14:13 53.79112 1.88656 36225 ft 442 kts 299°
2026-05-01 14:13 53.82404 1.79848 36221 ft 443 kts 298°
2026-05-01 14:14 53.85687 1.71031 36216 ft 443 kts 298°
2026-05-01 14:14 53.88970 1.62199 36210 ft 443 kts 298°
2026-05-01 14:15 53.92250 1.53331 36208 ft 443 kts 298°
2026-05-01 14:15 53.95522 1.44453 36207 ft 444 kts 298°
2026-05-01 14:16 53.98788 1.35556 36201 ft 444 kts 298°
2026-05-01 14:16 54.02035 1.26699 36202 ft 444 kts 298°
2026-05-01 14:17 54.05295 1.17764 36194 ft 444 kts 298°
2026-05-01 14:17 54.08548 1.08810 36194 ft 445 kts 297°
2026-05-01 14:18 54.11741 0.99989 36195 ft 445 kts 297°
2026-05-01 14:18 54.14442 0.92511 36197 ft 445 kts 297°
2026-05-01 14:19 54.18224 0.81992 36191 ft 445 kts 297°
2026-05-01 14:19 54.21439 0.73012 36184 ft 445 kts 297°
2026-05-01 14:20 54.26272 0.59450 36183 ft 445 kts 297°
2026-05-01 14:21 54.29494 0.50362 36184 ft 445 kts 297°
2026-05-01 14:21 54.32705 0.41287 36177 ft 446 kts 297°
2026-05-01 14:22 54.37508 0.27631 36174 ft 445 kts 297°
2026-05-01 14:22 54.40684 0.18565 36172 ft 445 kts 297°
2026-05-01 14:23 54.43875 0.09437 36173 ft 445 kts 297°
2026-05-01 14:23 54.47057 0.00293 36168 ft 445 kts 296°
2026-05-01 14:24 54.50220 -0.08859 36159 ft 445 kts 296°
2026-05-01 14:24 54.53372 -0.18007 36163 ft 445 kts 296°
2026-05-01 14:25 54.56533 -0.27173 36160 ft 444 kts 297°
2026-05-01 14:25 54.59677 -0.36348 36157 ft 444 kts 296°
2026-05-01 14:26 54.64348 -0.50050 36147 ft 443 kts 296°
2026-05-01 14:27 54.67456 -0.59230 36144 ft 443 kts 296°
2026-05-01 14:27 54.70563 -0.68415 36138 ft 443 kts 296°
2026-05-01 14:28 54.75207 -0.82203 36133 ft 441 kts 296°
2026-05-01 14:28 54.78291 -0.91390 36135 ft 441 kts 296°
2026-05-01 14:29 54.81357 -1.00559 36126 ft 437 kts 296°
2026-05-01 14:30 54.85860 -1.14111 35766 ft 428 kts 296°
2026-05-01 14:30 54.87350 -1.18614 35021 ft 429 kts 296°
2026-05-01 14:30 54.88842 -1.23135 34216 ft 433 kts 296°
2026-05-01 14:31 54.91832 -1.32218 32785 ft 431 kts 296°
2026-05-01 14:31 54.93312 -1.36719 32182 ft 427 kts 296°
2026-05-01 14:31 54.94783 -1.41204 31607 ft 424 kts 296°
2026-05-01 14:31 54.96235 -1.45642 31049 ft 420 kts 296°
2026-05-01 14:32 54.97674 -1.50044 30481 ft 417 kts 296°
2026-05-01 14:32 54.99102 -1.54417 29892 ft 414 kts 296°
2026-05-01 14:32 55.00519 -1.58769 29271 ft 410 kts 296°
2026-05-01 14:32 55.01917 -1.63074 28653 ft 407 kts 296°
2026-05-01 14:33 55.03305 -1.67359 28073 ft 404 kts 296°
2026-05-01 14:33 55.04677 -1.71598 27508 ft 400 kts 296°
2026-05-01 14:33 55.06041 -1.75816 26954 ft 397 kts 295°
2026-05-01 14:33 55.07390 -1.79993 26406 ft 394 kts 295°
2026-05-01 14:34 55.08710 -1.84093 25880 ft 391 kts 295°
2026-05-01 14:34 55.10036 -1.88226 25350 ft 388 kts 295°
2026-05-01 14:34 55.11349 -1.92335 24830 ft 386 kts 295°
2026-05-01 14:34 55.12654 -1.96410 24320 ft 383 kts 295°
2026-05-01 14:35 55.13979 -2.00436 23827 ft 381 kts 295°
2026-05-01 14:35 55.15308 -2.04429 23268 ft 378 kts 296°
2026-05-01 14:35 55.16627 -2.08402 22709 ft 375 kts 295°
2026-05-01 14:35 55.17927 -2.12334 22173 ft 373 kts 295°
2026-05-01 14:36 55.19215 -2.16253 21667 ft 369 kts 295°
2026-05-01 14:36 55.20490 -2.20137 21143 ft 367 kts 295°
2026-05-01 14:36 55.21754 -2.23995 20643 ft 364 kts 295°
2026-05-01 14:36 55.23009 -2.27834 20140 ft 361 kts 295°
2026-05-01 14:37 55.24252 -2.31644 19671 ft 359 kts 295°
2026-05-01 14:37 55.25486 -2.35436 19195 ft 357 kts 295°
2026-05-01 14:37 55.26706 -2.39188 18734 ft 354 kts 295°
2026-05-01 14:37 55.27923 -2.42936 18273 ft 352 kts 295°
2026-05-01 14:38 55.29130 -2.46654 17771 ft 349 kts 295°
2026-05-01 14:38 55.30324 -2.50340 17285 ft 346 kts 295°
2026-05-01 14:38 55.31509 -2.54009 16812 ft 344 kts 295°
2026-05-01 14:38 55.32683 -2.57647 16338 ft 341 kts 295°
2026-05-01 14:39 55.33833 -2.61213 15885 ft 338 kts 295°
2026-05-01 14:39 55.34986 -2.64792 15425 ft 336 kts 295°
2026-05-01 14:39 55.36129 -2.68354 14979 ft 333 kts 295°
2026-05-01 14:39 55.37265 -2.71896 14533 ft 331 kts 295°
2026-05-01 14:40 55.38391 -2.75410 14098 ft 329 kts 295°
2026-05-01 14:40 55.39509 -2.78902 13632 ft 327 kts 295°
2026-05-01 14:40 55.40620 -2.82384 13173 ft 325 kts 295°
2026-05-01 14:40 55.41725 -2.85846 12720 ft 323 kts 295°
2026-05-01 14:41 55.42818 -2.89277 12285 ft 321 kts 295°
2026-05-01 14:41 55.43909 -2.92705 11841 ft 319 kts 295°
2026-05-01 14:41 55.44989 -2.96105 11394 ft 317 kts 294°
2026-05-01 14:41 55.45999 -2.99520 11013 ft 310 kts 286°
2026-05-01 14:42 55.46278 -3.01023 10919 ft 303 kts 279°
2026-05-01 14:52 55.46369 -3.01683 10883 ft 300 kts 277°
2026-05-01 14:53 55.46763 -3.05236 10633 ft 291 kts 275°
2026-05-01 14:53 55.47120 -3.08725 10283 ft 289 kts 275°
2026-05-01 14:53 55.47480 -3.12214 10101 ft 289 kts 275°
2026-05-01 14:53 55.47839 -3.15648 10072 ft 288 kts 275°
2026-05-01 14:54 55.48204 -3.19111 10068 ft 283 kts 275°
2026-05-01 14:54 55.48563 -3.22503 9671 ft 282 kts 275°
2026-05-01 14:54 55.49069 -3.25858 9200 ft 287 kts 289°
2026-05-01 14:54 55.50230 -3.28752 8758 ft 296 kts 314°
2026-05-01 14:55 55.52023 -3.30559 8343 ft 302 kts 341°
2026-05-01 14:55 55.54110 -3.30853 7952 ft 304 kts
2026-05-01 14:55 55.56092 -3.29612 7537 ft 301 kts 29°
2026-05-01 14:55 55.57897 -3.27773 7191 ft 300 kts 31°
2026-05-01 14:56 55.59679 -3.25883 6888 ft 296 kts 31°
2026-05-01 14:56 55.61455 -3.24047 6506 ft 295 kts 30°
2026-05-01 14:56 55.63233 -3.22227 6156 ft 293 kts 30°
2026-05-01 14:56 55.64644 -3.20780 6070 ft 294 kts 30°
2026-05-01 14:57 55.66392 -3.18987 5832 ft 289 kts 31°
2026-05-01 14:57 55.69893 -3.15422 5059 ft 290 kts 31°
2026-05-01 14:57 55.71652 -3.13652 4943 ft 289 kts 30°
2026-05-01 14:58 55.73357 -3.11946 4923 ft 274 kts 30°
2026-05-01 14:58 55.74972 -3.10336 4921 ft 259 kts 30°
2026-05-01 14:58 55.76414 -3.08464 4924 ft 256 kts 46°
2026-05-01 14:58 55.77584 -3.06113 4950 ft 254 kts 53°
2026-05-01 14:59 55.78687 -3.03659 4956 ft 254 kts 54°
2026-05-01 14:59 55.79782 -3.01191 4949 ft 251 kts 54°
2026-05-01 14:59 55.80855 -2.98773 4616 ft 249 kts 54°
2026-05-01 14:59 55.81923 -2.96355 4229 ft 248 kts 54°
2026-05-01 15:00 55.84078 -2.91618 3559 ft 244 kts 42°
2026-05-01 15:00 55.85537 -2.90205 3224 ft 243 kts 15°
2026-05-01 15:00 55.87214 -2.90043 2957 ft 235 kts 348°
2026-05-01 15:01 55.88675 -2.91053 2916 ft 216 kts 324°
2026-05-01 15:01 55.89765 -2.92637 2918 ft 195 kts 314°
2026-05-01 15:01 55.90757 -2.94279 2992 ft 195 kts 315°
2026-05-01 15:01 55.91774 -2.95871 2968 ft 194 kts 316°
2026-05-01 15:02 55.92809 -2.97435 2961 ft 194 kts 317°
2026-05-01 15:02 55.93494 -2.98459 2960 ft 194 kts 317°
2026-05-01 15:02 55.94881 -3.00531 2965 ft 194 kts 317°
2026-05-01 15:02 55.95923 -3.02080 2944 ft 195 kts 317°
2026-05-01 15:03 55.96966 -3.03629 2950 ft 195 kts 317°
2026-05-01 15:03 55.98007 -3.05180 2952 ft 191 kts 317°
2026-05-01 15:03 55.98980 -3.06630 2952 ft 175 kts 316°
2026-05-01 15:03 55.99911 -3.08023 2967 ft 174 kts 316°
2026-05-01 15:04 56.00839 -3.09411 2967 ft 174 kts 316°
2026-05-01 15:04 56.01759 -3.10787 2965 ft 174 kts 316°
2026-05-01 15:04 56.02638 -3.12254 2952 ft 172 kts 303°
2026-05-01 15:04 56.02980 -3.14171 2928 ft 162 kts 259°
2026-05-01 15:05 56.02494 -3.15909 2791 ft 155 kts 231°
2026-05-01 15:05 56.01838 -3.17433 2569 ft 153 kts 231°
2026-05-01 15:05 56.01250 -3.18938 2351 ft 145 kts 234°
2026-05-01 15:05 56.00729 -3.20379 2126 ft 134 kts 235°
2026-05-01 15:06 56.00235 -3.21786 1940 ft 134 kts 237°
2026-05-01 15:06 55.99750 -3.23212 1788 ft 131 kts 238°
2026-05-01 15:06 55.99288 -3.24575 1594 ft 127 kts 238°
2026-05-01 15:06 55.98829 -3.25932 1415 ft 128 kts 238°
2026-05-01 15:07 55.98372 -3.27284 1245 ft 128 kts 238°
2026-05-01 15:07 55.97912 -3.28646 1072 ft 128 kts 238°
2026-05-01 15:07 55.97450 -3.30011 905 ft 129 kts 239°
2026-05-01 15:07 55.97025 -3.31268 728 ft 129 kts 239°
2026-05-01 15:08 55.96561 -3.32640 546 ft 130 kts 239°
2026-05-01 15:08 55.96086 -3.34046 373 ft 135 kts 239°
2026-05-01 15:08 55.95601 -3.35479 220 ft 136 kts 239°
2026-05-01 15:08 55.95114 -3.36900 135 ft 127 kts 238°
2026-05-01 15:09 55.94661 -3.38238 309 ft 139 kts 239°
2026-05-01 15:09 55.94162 -3.39709 1070 ft 136 kts 238°
2026-05-01 15:09 55.93631 -3.41246 1665 ft 166 kts 237°
2026-05-01 15:09 55.92990 -3.43130 2416 ft 188 kts 237°
2026-05-01 15:10 55.92250 -3.45299 2794 ft 225 kts 237°
2026-05-01 15:10 55.90796 -3.50772 2979 ft 254 kts 261°
2026-05-01 15:10 55.90998 -3.53913 2979 ft 260 kts 287°
2026-05-01 15:11 55.91968 -3.56652 2977 ft 266 kts 313°
2026-05-01 15:11 55.95031 -3.60405 2975 ft 268 kts 326°
2026-05-01 15:11 55.96632 -3.62150 2966 ft 268 kts 326°
2026-05-01 15:12 55.98223 -3.63881 2964 ft 269 kts 326°
2026-05-01 15:12 56.01818 -3.65183 2967 ft 273 kts 13°
2026-05-01 15:12 56.03508 -3.63787 2964 ft 273 kts 38°
2026-05-01 15:13 56.06968 -3.55971 2905 ft 255 kts 56°
2026-05-01 15:14 56.08945 -3.51002 2543 ft 239 kts 56°
2026-05-01 15:14 56.09908 -3.48567 2429 ft 238 kts 56°
2026-05-01 15:14 56.11813 -3.43718 2462 ft 237 kts 56°
2026-05-01 15:15 56.13636 -3.39114 2533 ft 219 kts 56°
2026-05-01 15:15 56.15399 -3.34670 2484 ft 219 kts 57°
2026-05-01 15:16 56.16166 -3.29844 2426 ft 192 kts 97°
2026-05-01 15:16 56.15202 -3.25644 2451 ft 184 kts 134°
2026-05-01 15:17 56.13162 -3.23071 2457 ft 179 kts 154°
2026-05-01 15:18 56.09996 -3.19852 2449 ft 159 kts 154°
2026-05-01 15:18 56.09042 -3.18877 2466 ft 158 kts 154°
2026-05-01 15:19 56.06194 -3.15965 2465 ft 158 kts 154°
2026-05-01 15:19 56.04277 -3.14027 2468 ft 158 kts 157°
2026-05-01 15:19 56.03229 -3.13728 2444 ft 155 kts 197°
2026-05-01 15:20 56.01900 -3.16639 2474 ft 156 kts 239°
2026-05-01 15:20 56.01387 -3.18303 2374 ft 147 kts 238°
2026-05-01 15:20 56.00877 -3.19856 2194 ft 144 kts 237°
2026-05-01 15:21 56.00361 -3.21394 2015 ft 144 kts 237°
2026-05-01 15:21 55.99862 -3.22875 1831 ft 133 kts 237°
2026-05-01 15:21 55.99404 -3.24232 1652 ft 124 kts 238°
2026-05-01 15:21 55.98958 -3.25552 1474 ft 125 kts 238°
2026-05-01 15:22 55.98058 -3.28215 1123 ft 126 kts 238°
2026-05-01 15:22 55.97612 -3.29532 953 ft 126 kts 238°
2026-05-01 15:22 55.97176 -3.30825 777 ft 128 kts 238°
2026-05-01 15:23 55.96717 -3.32182 603 ft 127 kts 239°
2026-05-01 15:23 55.96265 -3.33517 419 ft 126 kts 239°
2026-05-01 15:23 55.95804 -3.34879 276 ft 134 kts 239°
2026-05-01 15:23 55.95321 -3.36305 127 ft 129 kts 239°
2026-05-01 15:24 55.94906 -3.37520 116 ft 90 kts 240°
2026-05-01 15:24 55.94756 -3.37963 119 ft 16 kts 241°
2026-05-01 15:24 55.94711 -3.38051 119 ft 10 kts 191°
2026-05-01 15:24 55.94689 -3.38045 120 ft 2 kts 160°
2026-05-01 15:25 55.94664 -3.38027 117 ft 6 kts 155°
2026-05-01 15:25 55.94620 -3.37982 120 ft 8 kts 147°
2026-05-01 15:25 55.94597 -3.37881 118 ft 11 kts 75°
2026-05-01 15:25 55.94629 -3.37770 119 ft 5 kts 58°
2026-05-01 15:26 55.94653 -3.37702 119 ft 8 kts 60°
2026-05-01 15:26 55.94686 -3.37602 121 ft 11 kts 58°
2026-05-01 15:26 55.94714 -3.37522 119 ft 6 kts 62°
2026-05-01 15:26 55.94739 -3.37443 120 ft 9 kts 58°
2026-05-01 15:27 55.94778 -3.37336 117 ft 12 kts 59°
2026-05-01 15:27 55.94824 -3.37198 121 ft 14 kts 61°
2026-05-01 15:27 55.94880 -3.37033 119 ft 17 kts 59°
2026-05-01 15:28 55.94993 -3.36698 119 ft 16 kts 59°
2026-05-01 15:28 55.95041 -3.36556 120 ft 11 kts 58°
2026-05-01 15:28 55.95085 -3.36427 117 ft 14 kts 58°
2026-05-01 15:29 55.95137 -3.36231 121 ft 1 kts 111°
2026-05-01 15:29 55.95131 -3.36205 120 ft 4 kts 107°
2026-05-01 15:29 55.95103 -3.36045 121 ft 10 kts 108°
2026-05-01 15:30 55.95060 -3.35890 121 ft 5 kts 141°
2026-05-01 15:31 55.95016 -3.36020 121 ft 0 kts 245°